Regional Weather Roundup
Issued by NWS Grand Forks, ND

Home | Current Version | Previous Version | Graphics & Text | Print | Product List | Glossary On
Versions: 1 2 3 4 5 6 7 8 9 10 11 12 13 14 15 16 17 18 19 20 21 22 23 24 25 26 27 28 29 30 31 32 33 34 35 36 37 38 39 40 41 42 43 44 45 46 47 48 49 50
000
ASUS43 KFGF 210831
RWRFGF
PRAIRIE TO PINES  WEATHER ROUNDUP
NATIONAL WEATHER SERVICE EASTERN NORTH DAKOTA/GRAND FORKS ND
300 AM CDT SAT OCT 21 2017

 **SATELLITE DATA USED TO AUGMENT SKY COVER AT AUTOMATED STATIONS**
 *****  WEATHER ACROSS EASTERN NORTH DAKOTA  *****

CITY           SKY/WX    TMP DP  RH WIND       PRES   REMARKS
GRAND FORKS    FAIR      67  58  72 S20G30    29.33F
GRAND FRKS AFB FAIR      65  57  75 S22G29    29.32F
DEVILS LAKE    FAIR      61  54  77 S18G25    29.28R
FARGO          FAIR      68  58  70 S21G33    29.39S
WAHPETON ARPT  NOT AVBL
$$

 ***** WEATHER ACROSS CENTRAL AND WESTERN NORTH DAKOTA  *****

CITY           SKY/WX    TMP DP  RH WIND       PRES   REMARKS
BISMARCK       FAIR      61  34  36 W14       29.34R
MINOT          FAIR      58  33  39 W20G36    29.23R
JAMESTOWN      FAIR      62  56  80 S14       29.32R
MINOT AFB      FAIR      56  33  42 W24G32    29.20R
GARRISON         N/A     56  33  42 NW17G35   29.29R
WILLISTON        N/A    N/A N/A N/A MISG      29.35R
DICKINSON      FAIR      52  36  54 W23G31    29.40R
HETTINGER      FAIR      47  37  68 W25G33    29.48R
$$

 *****  OTHER AIRPORT OBSERVATIONS IN OUR AREA  *****

CITY           SKY/WX    TMP DP  RH WIND       PRES   REMARKS
WALHALLA       FAIR     N/A N/A N/A S15       29.27R
GRAFTON AIRPOR FAIR      64  57  77 SE20G26   29.32F
VALLEY CITY AR FAIR      64  61  88 S14G23    29.35S
CANDO          FAIR      57  57 100 S14G21    29.27R
CAVALIER APRT  FAIR      64  57  77 S18       29.28S
GWINNER        SUNNY     66  57  72 S16G22    29.38S
SHEYENNE NWR     N/A     66  59  78 S14       29.95S
ROLLA          FAIR      48  48 100 S7        29.24S
 ***** THE ABOVE OBSERVATIONS ARE NON NWS ARE NOT QUALITY
       CONTROLLED AND MAY MIS-REPORT RAIN FOR SNOW...
$$

  *****  WEATHER ACROSS NORTHERN MINNESOTA  *****

CITY           SKY/WX    TMP DP  RH WIND       PRES   REMARKS
FLAG ISLAND    FAIR      57  50  77 S16       29.43F
WARROAD        FAIR      64  55  72 SE15      29.43F
ROSEAU         FAIR      66  57  72 S15G21    29.41F
HALLOCK        FAIR      68  57  68 S23G30    29.32F
THF RVR FALLS  FAIR      66  56  70 S22G28    29.42F
BAUDETTE       FAIR      65  52  62 S14G24    29.49S
WASKISH        RAIN      59  55  88 S7G20     29.52S
CROOKSTON      FAIR      68  57  68 S28       29.38S
STEPHEN NDAWN    N/A     68  57  68 S21         N/A
GREENBUSH NDAW   N/A     64  55  72 S17         N/A
$$
  *****  WEATHER ACROSS CENTRAL AND WEST MINNESOTA  *****

CITY           SKY/WX    TMP DP  RH WIND       PRES   REMARKS
FOSSTON        FAIR      64  54  68 S20G28    29.45F
BEMIDJI        MOCLDY    60  56  84 S14       29.52F
PARK RAPIDS    FAIR      64  56  75 S21G31    29.54S
ELBOW LAKE     FAIR      63  57  81 SE21G29   29.50S
WADENA         FAIR      63  55  77 S16G28    29.54S
DETROIT LAKES  FAIR      64  55  72 S15G23    29.49S
MOORHEAD       FAIR      66  57  72 S24G32    29.41S
FERGUS FALLS   FAIR      64  55  72 S23       29.47F
MORRIS MN      FAIR      64  57  77 S17G23    29.50S
STAPLES        CLOUDY    63  54  72 S14G24    29.57F
$$
  *****  WEATHER ELSEWHERE ACROSS MINNESOTA  *****

CITY           SKY/WX    TMP DP  RH WIND       PRES   REMARKS
DULUTH         FAIR      61  49  64 S17G23    29.71F
INTRNTL FALLS  FAIR      64  47  53 S9        29.56S
ELY            FAIR      61  45  55 S7G16     29.68F
CLOQUET        RAIN      63  48  59 S10G17    29.69F
WHEATON        FAIR      66  55  68 SE16      29.46F
BRAINERD       FAIR      63  53  70 S15       29.62S
HIBBING        FAIR      60  49  66 S7        29.66F
ALEXANDRIA     FAIR      63  56  78 S20G30    29.56S
SAINT CLOUD    FAIR      63  56  78 S15G24    29.64F
MINNEAPOLIS    MOCLDY    64  53  67 S14       29.72F
$$

  *****  WEATHER ACROSS SOUTH DAKOTA  *****

CITY           SKY/WX    TMP DP  RH WIND       PRES   REMARKS
SIOUX FALLS    FAIR      66  58  75 S20G32    29.53F
BROOKINGS      FAIR      65  57  75 S22G29    29.51S
WATERTOWN      FAIR      63  58  83 S21G29    29.46F
HURON          FAIR      66  58  75 S17G25    29.42S
SISSETON         N/A     68  58  70 S16G24    29.42S
ABERDEEN       FAIR      63  58  83 S15       29.38R
MITCHELL       FAIR      68  58  70 S16G25    29.45S
PIERRE         FAIR      60  53  77 S9        29.39R
MOBRIDGE       FAIR      59  51  75 W7        29.36R
RAPID CITY     MOCLDY    53  41  63 N20       29.51F
$$

  *****  SOME WEATHER IN NEARBY STATES *****

CITY           SKY/WX    TMP DP  RH WIND       PRES   REMARKS
GLASGOW MT     CLOUDY    46  38  73 W28G39    29.48R
GREAT FALLS MT FAIR      36  24  62 SW14      29.71R
CHEYENNE WY    MOCLDY    43  24  47 W25G40    29.67R
SCOTTSBLUFF NE MOCLDY    52  32  46 W17G31    29.64R
OMAHA NE       LGT RAIN  65  59  81 S18G25    29.65F
DES MOINES IA  FAIR      64  55  72 S18       29.79F
DAVENPORT IA   FAIR      64  50  60 S16G23    29.98S
CHICAGO IL     MOCLDY    63  48  58 S7        30.05S
EAU CLAIRE WI  FAIR      63  46  54 S9        29.81F
LA CROSSE WI   FAIR      66  49  54 S17G25    29.84F
$$

  *****  SOME NATIONAL WEATHER *****

CITY           SKY/WX    TMP DP  RH WIND       PRES   REMARKS
LA GUARDIA NY  FAIR      62  41  46 N3        30.25R
RALEIGH NC     FAIR      51  51 100 CALM      30.26S
ATLANTA GA     MOCLDY    59  47  64 NE3       30.22S
NEW ORLEANS LA MOCLDY    76  71  85 SE14      30.03F
OKLAHOMA CITY  CLOUDY    69  64  84 S22G30    29.82F
ALBUQUERQUE NM MOCLDY    63  32  31 SW3       29.91R
SALT LAKE CITY MOCLDY    41  30  65 SW5       30.05R
LOS ANGELES CA FAIR      66  33  29 N9        29.97R
BOISE ID       FAIR      38  31  76 CALM      30.06R
SEATTLE WA     CLOUDY    47  39  74 SE9       29.92F
$$

*** WEATHER ACROSS MANITOBA...SASKATCHEWAN AND ONTARIO ***
                ***ONTARIO***

CITY           SKY/WX    TMP DP  RH WIND       PRES   REMARKS
GERALDTON      PTCLDY    41  41 100 VRB2      29.83S
THUNDER BAY    MOCLDY    50  46  87 CALM      29.76S
SIOUX LOOKOUT  MOCLDY    61  46  59 S7        29.59S
TORONTO        CLEAR     54  39  58 SE2       30.19R
BIG TROUT LK   MOCLDY    39  32  75 SE15G25   29.73F
PICKLE LAKE    NOT AVBL
DRYDEN         PTCLDY    61  46  59 S14G20    29.56F
KENORA         MOCLDY    64  50  59 S15G22    29.47F
$$
                *** MANITOBA***

CITY           SKY/WX    TMP DP  RH WIND       PRES   REMARKS
BRANDON        PTCLDY    46  45  93 E7        29.21R
DAUPHIN        CLEAR     41  37  87 SW3       29.18S
ISLAND LAKE    PTCLDY    48  41  76 SE20      29.41
PILOT MOUND      N/A     59  52  77 S20         N/A
THE PAS        CLEAR     43  37  81 NE5       29.22F
THOMPSON       MOCLDY    37  34  87 NE8       29.39F
WINNIPEG       MOCLDY    66  55  68 S25G31    29.28F
LYNN LAKE      CLOUDY    36  36 100 E9        29.38F
CHURCHILL      MOCLDY    36  32  87 SE26G35   29.72F
GILLAM         CLOUDY    36  30  80 E9G17     29.55F
$$
                ***SASKATCHEWAN***

CITY           SKY/WX    TMP DP  RH WIND       PRES   REMARKS
ESTEVAN        PTCLDY    52  34  50 NW17G26   29.26R
KINDERSLEY     LGT RAIN  43  39  87 NW17G26   29.41R
LLOYDMINSTER   LGT RAIN  41  37  87 NW13      29.43R
PRINCE ALBERT  MOCLDY    37  34  87 N8        29.29S
REGINA         CLOUDY    45  36  70 NW20G26   29.26F
YORKTON        CLOUDY    46  39  76 S6        29.16F
N. BATTLEFORD  LGT RAIN  43  37  81 NW17G23   29.38R
LA RONGE       CLEAR     36  34  93 N6        29.33S
SASKATOON      MOCLDY    43  36  75 W13       29.31F
SWIFT CURRENT  CLOUDY    43  37  81 NW20G25   29.37R
$$
NOTE: THESE ARE AUTOMATED STATIONS WITH LIMITED QUALITY CONTROL
      "FAIR" INDICATES FEW OR NO CLOUDS BELOW 12,000 FEET WITH NO
      SIGNIFICANT WEATHER AND/OR OBSTRUCTIONS TO VISIBILITY.
      SKY/WX - SKY CONDITION AND SIGNIFICANT WEATHER.
      TMP - AIR TEMPERATURE.    DP   - DEWPOINT TEMPERATURE.
      RH  - RELATIVE HUMIDITY.  PRES - PRESSURE.
      HX  - HEAT INDEX.         WCI  - WIND CHILL INDEX.
$



USA.gov is the U.S. government's official web portal to all federal, state and local government web resources and services.